Regional Weather Roundup
Issued by NWS

Home | Current Version | Previous Version | Text Only | Print | Product List | Glossary On
Versions: 1 2 3 4 5 6 7 8 9 10 11 12 13 14 15 16 17 18 19 20 21 22 23 24 25 26 27 28 29 30 31 32 33 34 35 36 37 38 39 40 41 42 43 44 45 46 47 48 49 50
653
ASUS43 KDTX 241010
RWRMI
MICHIGAN HOURLY REGIONAL WEATHER ROUNDUP
NATIONAL WEATHER SERVICE DETROIT/PONTIAC MI
600 AM EDT TUE MAY 24 2016

NOTE: "FAIR" INDICATES FEW OR NO CLOUDS BELOW 12,000 FEET WITH NO
SIGNIFICANT WEATHER AND/OR OBSTRUCTION TO VISIBILITY.

MIZ047>049-052>055-059>063-066>070-074>076-081>083-241100-
SOUTHEAST LOWER MICHIGAN

CITY           SKY/WX    TMP DP  RH WIND       PRES   REMARKS
ADRIAN         CLEAR     46  43  89 CALM      30.03R
ALMA           CLEAR     44  43  95 SW3       29.99S
ANN ARBOR      FOG       41  40  96 CALM      30.02R VSB 1/2
BAD AXE        CLOUDY    48  38  68 CALM      29.99R
CARO           CLEAR     41  39  94 CALM      30.00R
DETROIT CITY   CLEAR     55  48  77 W6        30.01R
DETROIT        PTCLDY    53  47  79 S3        30.03R
FLINT          CLEAR     47  42  83 SW3       30.01R
GROSSE ILE     CLEAR     54  50  87 CALM      30.00S
HILLSDALE      CLEAR     50  39  65 CALM      30.03S
HOWELL         CLEAR     49  43  80 S3        30.02R

CITY           SKY/WX    TMP DP  RH WIND       PRES   REMARKS
JACKSON        CLEAR     46  42  86 SW3       30.02R
LAMBERTVILLE   CLEAR     47  46  93 CALM      30.03R
LANSING        CLEAR     52  39  61 VRB3      30.01R
LAPEER         FAIR      42  42  98 CALM      30.01R
MASON          CLEAR     50  41  71 S7        30.01S
MONROE         FOG       46  46 100 W3        30.01S VSB 1/2
MT. CLEMENS    CLEAR     48  46  95 CALM      30.00R
PONTIAC        PTCLDY    50  46  86 CALM      30.01R
PORT HOPE        N/A     57  38  48 SW6       29.96R
PORT HURON       N/A     41  41 100 CALM      30.01R FOG
TRI CITIES     CLEAR     55  41  59 SW8       30.00R
MIDLAND        FAIR      43  43  98 CALM      29.98S
TROY           CLEAR     56  46  71 SW3       30.03R
SAGINAW HB     CLEAR     50  37  62 S3        29.99S
$$
MIZ043>046-050>051-056>058-064>065-071>073-077>080-241100-
SOUTHWEST LOWER MICHIGAN

CITY           SKY/WX    TMP DP  RH WIND       PRES   REMARKS
BATTLE CREEK   CLEAR     53  39  59 S3        30.02R
BENTON HARBOR  CLEAR     58  38  47 S7        29.99R
BIG RAPIDS     CLEAR     45  43  93 CALM      29.97S
COLDWATER      CLEAR     45  43  92 CALM      30.02R
FREMONT        FAIR      53  39  59 CALM      29.97S
HOLLAND        CLEAR     56  38  50 S3        29.99R
GRAND RAPIDS   PTCLDY    52  41  66 S5        29.99S
IONIA          FAIR      54  35  47 S5        29.99S
KALAMAZOO      CLEAR     50  39  66 CALM      30.01R
LUDINGTON      CLEAR     61  39  44 SE6       29.94S
MARSHALL       CLEAR     47  40  77 CALM      30.01S
MOUNT PLEASANT CLEAR     46  46  98 CALM      29.98S FOG
MUSKEGON       PTCLDY    66  38  35 SW13G23   29.97R
SOUTH HAVEN    CLEAR     52  42  68 CALM      29.99R
$$
MIZ016>042-241100-
NORTHERN LOWER MICHIGAN

CITY           SKY/WX    TMP DP  RH WIND       PRES   REMARKS
ALPENA         CLEAR     43  39  86 CALM      29.94S
BEAVER ISLAND  PTCLDY    64  35  34 SW12      29.89S
BELLAIRE       CLEAR     44  43  94 CALM      29.94R
CADILLAC       CLEAR     43  39  86 CALM      29.97S
CHARLEVOIX     CLEAR     58  40  50 SE7       29.94S
FRANKFORT      PTCLDY    68  39  33 S8G20     29.92S
GAYLORD        CLEAR     60  36  40 SW8       29.96R
GRAYLING       CLEAR     40  38  91 CALM      29.97S
HARBOR SPRINGS CLEAR     51  41  68 CALM      29.92S
HOUGHTON LAKE  CLEAR     58  44  60 SW8       29.98S
MANISTEE       CLEAR     48  37  66 E3        29.95R
OSCODA         CLEAR     46  41  85 S3        29.96R
PELLSTON       CLEAR     53  38  56 E7        29.92R
ROGERS CITY    CLEAR     56  41  58 SW8       29.93R
TRAVERSE CITY  CLEAR     64  35  34 CALM      29.92S
$$
MIZ007>008-015-241100-
EASTERN UPPER MICHIGAN

CITY           SKY/WX    TMP DP  RH WIND       PRES   REMARKS
KINROSS          N/A     48  43  81 SE5       29.92S
MACKINAC ISLAN CLEAR     49  43  78 S6        29.91S
NEWBERRY       CLEAR     57  38  49 SW16      29.89S
S. S. MARIE    CLEAR     49  40  71 E3        29.92S
MUNISING         N/A     57  41  55 SW12      29.84S
$$
MIZ004>006-011>014-085-241100-
CENTRAL UPPER MICHIGAN

CITY           SKY/WX    TMP DP  RH WIND       PRES   REMARKS
MANISTIQUE     MOCLDY    53  44  72 S13       29.87F
ESCANABA       PTCLDY    54  45  71 W3        29.87R
MENOMINEE      CLOUDY    63  45  51 W6        29.88S
SAWYER-GWINN   CLEAR     53  44  70 SW5       29.87R
$$
MIZ001>003-009>011-084-241100-
WESTERN UPPER MICHIGAN

CITY           SKY/WX    TMP DP  RH WIND       PRES   REMARKS
IRON MOUNTAIN  CLOUDY    56  50  80 CALM      29.87R
HOUGHTON       CLOUDY    61  58  90 W10       29.83S
COPPER HARBOR    N/A     58  56  93 S3        29.82R
IRONWOOD       CLOUDY    61  59  94 SE5       29.82S
$$

ABBREVIATIONS USED IN REMARKS
   TC - TEMPERATURE IN CELSIUS
  WCI - WIND CHILL INDEX
   HX - HEAT INDEX
  VSB - VISIBILITY





USA.gov is the U.S. government's official web portal to all federal, state and local government web resources and services.